KG7FOQ-13 Weather Reports


time (UTC)temp
F
wind
direction
speed
knots
gust
knots
rain 1hr
in
rain 24hr
in
rain mn
in
humidity
%
barometer
mb
20260505190814 63 27 15.6 20.9 0.00 0.00 0.00 38 1009.3
20260505190313 63 42 10.4 19.1 0.00 0.00 0.00 39 1009.3
20260505185813 63 7 11.3 20.9 0.00 0.00 0.00 43 1009.3
20260505185312 62 59 14.8 20.9 0.00 0.00 0.00 43 1009.3
20260505184311 62 39 14.8 23.5 0.00 0.00 0.00 44 1009.3
20260505183310 62 38 19.1 22.6 0.00 0.00 0.00 45 1009.5
20260505182810 61 49 13.9 25.2 0.00 0.00 0.00 44 1009.5
20260505182309 60 35 19.1 22.6 0.00 0.00 0.00 45 1009.5
20260505181809 61 35 13.9 19.1 0.00 0.00 0.00 50 1009.5
20260505181308 62 27 13.9 23.5 0.00 0.00 0.00 50 1009.5
20260505180807 60 31 18.2 22.6 0.00 0.00 0.00 48 1009.6
20260505180307 60 42 17.4 21.7 0.00 0.00 0.00 47 1009.6
20260505175806 61 41 14.8 23.5 0.00 0.00 0.00 47 1009.7
20260505175306 61 37 13.9 20.0 0.00 0.00 0.00 49 1009.7
20260505174805 60 42 13.9 22.6 0.00 0.00 0.00 48 1009.8
20260505174305 60 72 17.4 20.0 0.00 0.00 0.00 48 1009.7
20260505173804 60 48 15.6 24.3 0.00 0.00 0.00 47 1009.7
20260505173304 58 86 20.0 23.5 0.00 0.00 0.00 47 1009.7
20260505172803 58 59 16.5 22.6 0.00 0.00 0.00 47 1009.7
20260505172305 59 79 16.5 26.9 0.00 0.00 0.00 49 1009.7
20260505171801 58 55 17.4 27.8 0.00 0.00 0.00 48 1009.7
20260505171301 57 82 19.1 26.9 0.00 0.00 0.00 48 1009.8
20260505170758 57 70 21.7 27.8 0.00 0.00 0.00 48 1009.8
20260505170258 57 62 20.0 26.1 0.00 0.00 0.00 49 1009.8
20260505165257 57 48 18.2 32.2 0.00 0.00 0.00 48 1009.7
20260505164756 57 52 23.5 33.0 0.00 0.00 0.00 48 1009.7
20260505164256 56 72 23.5 31.3 0.00 0.00 0.00 48 1009.7
20260505163754 56 66 25.2 29.5 0.00 0.00 0.00 46 1009.7
20260505163254 55 59 22.6 28.7 0.00 0.00 0.00 46 1009.8
20260505162253 55 80 22.6 26.9 0.00 0.00 0.00 46 1009.9
20260505161752 54 77 20.9 28.7 0.00 0.00 0.00 47 1009.9
20260505161252 55 59 21.7 32.2 0.00 0.00 0.00 46 1010.0
20260505160751 54 69 21.7 29.5 0.00 0.00 0.00 45 1010.2
20260505160251 54 63 21.7 25.2 0.00 0.00 0.00 45 1010.2
20260505153247 53 55 17.4 26.1 0.00 0.00 0.00 47 1010.2
20260505152746 53 76 19.1 28.7 0.00 0.00 0.00 47 1010.0
20260505152245 53 68 20.0 27.8 0.00 0.00 0.00 47 1010.0
20260505151745 53 72 20.0 28.7 0.00 0.00 0.00 47 1010.0
20260505151245 53 86 23.5 25.2 0.00 0.00 0.00 46 1009.9
20260505150744 53 52 17.4 25.2 0.00 0.00 0.00 47 1010.0
20260505140233 52 53 12.2 21.7 0.00 0.00 0.00 53 1009.8
20260505130225 52 45 13.0 19.1 0.00 0.00 0.00 52 1009.1
20260505124724 53 77 12.2 20.0 0.00 0.00 0.00 52 1008.8
20260505124223 53 69 13.0 18.2 0.00 0.00 0.00 54 1008.6
20260505123721 52 62 14.8 15.6 0.00 0.00 0.00 55 1008.6
20260505123221 53 107 10.4 14.8 0.00 0.00 0.00 55 1008.8
20260505122721 53 52 9.6 11.3 0.00 0.00 0.00 55 1008.9
20260505122219 53 51 7.0 13.0 0.00 0.00 0.00 54 1009.0
20260505121718 53 51 9.6 20.0 0.00 0.00 0.00 55 1008.8
20260505121217 53 59 13.0 16.5 0.00 0.00 0.00 55 1008.6
20260505120716 52 58 10.4 16.5 0.00 0.00 0.00 57 1008.4
20260505120216 53 55 12.2 19.1 0.00 0.00 0.00 57 1008.3
20260505115715 52 62 13.0 15.6 0.00 0.00 0.00 58 1008.2
20260505115401 52 69 11.3 13.0 0.00 0.00 0.00 59 1008.2
20260505115215 52 69 11.3 13.0 0.00 0.00 0.00 59 1008.2
20260505114714 52 58 10.4 13.9 0.00 0.00 0.00 59 1008.1
20260505114214 52 75 11.3 15.6 0.00 0.00 0.00 59 1008.0
20260505113713 52 63 12.2 14.8 0.00 0.00 0.00 57 1007.8
20260505113213 53 87 11.3 12.2 0.00 0.00 0.00 56 1008.0
20260505112711 53 80 8.7 11.3 0.00 0.00 0.00 57 1008.1
20260505112211 53 60 8.7 10.4 0.00 0.00 0.00 56 1008.1
20260505111808 53 93 8.7 11.3 0.00 0.00 0.00 56 1008.1
20260505111710 53 93 8.7 11.3 0.00 0.00 0.00 56 1008.1
20260505111210 53 77 7.8 11.3 0.00 0.00 0.00 57 1008.1
20260505110709 53 72 8.7 13.9 0.00 0.00 0.00 57 1008.0
20260505110209 53 83 10.4 13.9 0.00 0.00 0.00 57 1007.8
20260505102205 53 84 11.3 11.3 0.00 0.00 0.00 56 1007.4
20260505101704 53 89 8.7 10.4 0.00 0.00 0.00 57 1007.3
20260505101204 53 94 8.7 13.0 0.00 0.00 0.00 57 1007.0
20260505100703 53 93 9.6 12.2 0.00 0.00 0.00 56 1007.0
20260505100203 53 90 8.7 11.3 0.00 0.00 0.00 57 1007.0
20260505095702 53 86 8.7 10.4 0.00 0.00 0.00 57 1007.0
20260505095201 53 108 7.0 7.8 0.00 0.00 0.00 56 1007.0
20260505094701 53 60 5.2 7.8 0.00 0.00 0.00 55 1007.0
20260505094200 53 70 6.1 5.2 0.00 0.00 0.00 54 1007.0
20260505093700 53 60 3.5 4.3 0.00 0.00 0.00 54 1007.0
20260505093159 52 46 2.6 7.0 0.00 0.00 0.00 54 1006.9
20260505092659 52 91 1.7 8.7 0.00 0.00 0.00 54 1006.9
20260505092158 51 105 3.5 5.2 0.00 0.00 0.00 55 1006.8
20260505091658 50 94 4.3 6.1 0.00 0.00 0.00 55 1006.7
20260505091157 49 110 3.5 5.2 0.00 0.00 0.00 58 1006.7
20260505090657 49 115 4.3 6.1 0.00 0.00 0.00 57 1006.7
20260505090156 49 114 3.5 6.1 0.00 0.00 0.00 58 1006.7
20260505085656 48 80 4.3 5.2 0.00 0.00 0.00 57 1006.6
20260505085155 48 32 1.7 6.1 0.00 0.00 0.00 61 1006.5
20260505084655 49 80 1.7 5.2 0.00 0.00 0.00 60 1006.3
20260505084154 49 169 4.3 4.3 0.00 0.00 0.00 59 1006.2
20260505083654 49 150 3.5 3.5 0.00 0.00 0.00 57 1006.3
20260505083153 50 153 2.6 3.5 0.00 0.00 0.00 56 1006.3
20260505082653 50 212 1.7 4.3 0.00 0.00 0.00 57 1006.2
20260505082152 51 176 3.5 5.2 0.00 0.00 0.00 56 1006.2
20260505081652 51 110 3.5 5.2 0.00 0.00 0.00 52 1006.2
20260505081151 52 108 2.6 3.5 0.00 0.00 0.00 54 1006.2
20260505080651 52 60 2.6 3.5 0.00 0.00 0.00 55 1006.2
20260505080150 53 128 1.7 5.2 0.00 0.00 0.00 54 1006.1
20260505075650 53 163 4.3 4.3 0.00 0.00 0.00 50 1006.0
20260505075149 53 156 4.3 3.5 0.00 0.00 0.00 51 1006.0
20260505074801 53 127 0.9 0.9 0.00 0.00 0.00 51 1006.2
20260505074649 53 127 0.9 0.9 0.00 0.00 0.00 51 1006.2
20260505074150 53 80 0.0 3.5 0.00 0.00 0.00 51 1006.2
20260505073648 53 155 1.7 7.8 0.00 0.00 0.00 52 1006.2
20260505073148 53 53 4.3 7.0 0.00 0.00 0.00 52 1006.2
20260505072648 54 30 4.3 6.1 0.00 0.00 0.00 48 1006.1
20260505072147 54 49 5.2 7.8 0.00 0.00 0.00 47 1006.1
20260505071647 55 37 6.1 9.6 0.00 0.00 0.00 45 1006.0
20260505071146 56 46 8.7 11.3 0.00 0.00 0.00 43 1005.9
20260505070645 55 60 9.6 11.3 0.00 0.00 0.00 43 1005.8
20260505070145 57 55 7.8 7.8 0.00 0.00 0.00 41 1005.8
20260505065645 56 80 7.0 11.3 0.00 0.00 0.00 41 1005.6
20260505065143 54 69 9.6 13.0 0.00 0.00 0.00 44 1005.5
20260505064643 53 28 8.7 7.0 0.00 0.00 0.00 43 1005.5
20260505064143 53 186 6.1 7.8 0.00 0.00 0.00 43 1005.3
20260505063142 52 201 6.1 8.7 0.00 0.00 0.00 44 1005.2
20260505062641 52 207 7.0 8.7 0.00 0.00 0.00 43 1005.2
20260505062141 52 207 7.8 8.7 0.00 0.00 0.00 44 1005.2
20260505061640 53 198 7.0 8.7 0.00 0.00 0.00 44 1005.1
20260505061137 53 197 6.1 7.8 0.00 0.00 0.00 43 1005.1
20260505060135 55 203 6.1 5.2 0.00 0.00 0.00 38 1005.1
20260505055634 55 186 4.3 7.0 0.00 0.00 0.00 38 1005.1
20260505055134 54 179 6.1 7.0 0.00 0.00 0.00 37 1005.0
20260505054631 54 186 6.1 7.8 0.00 0.00 0.00 38 1005.1
20260505054131 53 170 6.1 7.8 0.00 0.00 0.00 41 1005.0
20260505053630 53 191 7.0 7.8 0.00 0.00 0.00 43 1004.8
20260505053130 53 218 6.1 7.8 0.00 0.00 0.00 44 1004.8
20260505052629 53 183 5.2 7.0 0.00 0.00 0.00 42 1004.8
20260505052127 56 214 5.2 7.0 0.00 0.00 0.00 37 1004.8
20260505051626 57 191 6.1 8.7 0.00 0.00 0.00 36 1004.8
20260505051126 57 174 7.0 8.7 0.00 0.00 0.00 36 1004.8
20260505050625 57 179 7.8 9.6 0.00 0.00 0.00 37 1004.8
20260505050125 57 167 7.8 9.6 0.00 0.00 0.00 38 1005.0
20260505041620 60 162 0.9 7.8 0.00 0.00 0.00 35 1005.0
20260505041118 62 212 5.2 7.8 0.00 0.00 0.00 31 1005.0
20260505040649 61 177 7.0 7.8 0.00 0.00 0.00 31 1005.0
20260505040617 61 177 7.0 7.8 0.00 0.00 0.00 31 1005.0
20260505040117 60 181 7.0 7.8 0.00 0.00 0.00 32 1005.0
20260505035616 58 177 7.0 7.8 0.00 0.00 0.00 36 1004.8
20260505035116 58 179 7.8 7.8 0.00 0.00 0.00 39 1004.8
20260505034615 59 163 6.1 7.0 0.00 0.00 0.00 38 1004.7
20260505034114 58 162 5.2 6.1 0.00 0.00 0.00 38 1004.7
20260505033615 60 246 0.0 0.0 0.00 0.00 0.00 39 1004.6
20260505033113 63 246 0.0 0.0 0.00 0.00 0.00 33 1004.5
20260505032615 65 246 0.0 0.9 0.00 0.00 0.00 29 1004.4
20260505032112 66 246 0.0 3.5 0.00 0.00 0.00 30 1004.4
20260505031612 66 262 0.9 3.5 0.00 0.00 0.00 29 1004.3
20260505031111 66 263 1.7 4.3 0.00 0.00 0.00 29 1004.3
20260505030611 66 276 2.6 4.3 0.00 0.00 0.00 28 1004.3
20260505030110 67 255 3.5 5.2 0.00 0.00 0.00 28 1004.1
20260505025610 67 260 4.3 5.2 0.00 0.00 0.00 27 1004.1
20260505025109 67 271 3.5 6.1 0.00 0.00 0.00 27 1004.1
20260505024609 68 262 4.3 7.0 0.00 0.00 0.00 28 1004.1
20260505024108 68 266 5.2 6.1 0.00 0.00 0.00 28 1004.1
20260505023643 68 271 5.2 7.0 0.00 0.00 0.00 27 1004.0
20260505023607 68 271 5.2 7.0 0.00 0.00 0.00 27 1004.0
20260505023106 69 274 5.2 8.7 0.00 0.00 0.00 27 1004.0
20260505022606 69 267 7.0 9.6 0.00 0.00 0.00 26 1004.0
20260505022105 69 269 7.0 8.7 0.00 0.00 0.00 26 1003.9
20260505021605 70 267 6.1 9.6 0.00 0.00 0.00 24 1003.9
20260505021104 70 274 7.0 11.3 0.00 0.00 0.00 23 1003.9
20260505020604 71 273 9.6 11.3 0.00 0.00 0.00 23 1003.9
20260505020103 71 264 7.8 12.2 0.00 0.00 0.00 23 1003.8
20260505015603 72 271 7.8 12.2 0.00 0.00 0.00 23 1003.9
20260505015102 72 277 7.8 12.2 0.00 0.00 0.00 23 1003.8
20260505014602 73 271 8.7 12.2 0.00 0.00 0.00 22 1003.8
20260505014059 73 255 9.6 12.2 0.00 0.00 0.00 23 1003.8
20260505013559 73 236 9.6 12.2 0.00 0.00 0.00 22 1003.9
20260505013058 73 269 9.6 10.4 0.00 0.00 0.00 20 1003.9
20260505012557 74 273 7.0 12.2 0.00 0.00 0.00 21 1003.9
20260505012057 74 273 7.0 11.3 0.00 0.00 0.00 22 1003.9
20260505011558 75 252 6.1 9.6 0.00 0.00 0.00 20 1003.9
20260505011056 75 263 5.2 9.6 0.00 0.00 0.00 21 1003.9
20260505010555 75 269 7.8 9.6 0.00 0.00 0.00 20 1004.0
20260505010053 76 248 5.2 5.2 0.00 0.00 0.00 20 1004.0
20260505005552 75 294 3.5 9.6 0.00 0.00 0.00 20 1004.0
20260505005052 75 287 6.1 10.4 0.00 0.00 0.00 19 1004.0
20260505004739 75 294 7.0 11.3 0.00 0.00 0.00 21 1004.0
20260505004551 75 294 7.0 11.3 0.00 0.00 0.00 21 1004.0
20260505004051 75 287 7.0 8.7 0.00 0.00 0.00 18 1004.1
20260505003550 76 295 6.1 7.8 0.00 0.00 0.00 21 1004.1
20260505003050 75 238 4.3 10.4 0.00 0.00 0.00 19 1004.1
20260505002548 75 273 8.7 11.3 0.00 0.00 0.00 19 1004.1
20260505002048 75 284 7.0 9.6 0.00 0.00 0.00 19 1004.1
20260505001547 75 277 6.1 12.2 0.00 0.00 0.00 18 1004.3
20260505001047 75 269 8.7 12.2 0.00 0.00 0.00 18 1004.3
20260505000546 75 267 8.7 9.6 0.00 0.00 0.00 18 1004.3
20260505000046 76 287 7.0 12.2 0.00 0.00 0.00 16 1004.3
20260504235545 75 280 6.1 11.3 0.00 0.00 0.00 18 1004.3
20260504235045 75 281 7.0 13.0 0.00 0.00 0.00 17 1004.3
20260504234544 75 277 10.4 13.9 0.00 0.00 0.00 18 1004.3
20260504234044 75 274 7.8 12.2 0.00 0.00 0.00 17 1004.1
20260504233543 75 308 8.7 11.3 0.00 0.00 0.00 18 1004.3
20260504233043 75 298 7.8 12.2 0.00 0.00 0.00 18 1004.3
20260504232619 75 285 8.7 12.2 0.00 0.00 0.00 17 1004.3
20260504232542 75 285 8.7 12.2 0.00 0.00 0.00 17 1004.3
20260504232041 75 266 7.8 11.3 0.00 0.00 0.00 18 1004.3
20260504231541 75 278 8.7 14.8 0.00 0.00 0.00 17 1004.4
20260504231116 76 284 7.0 11.3 0.00 0.00 0.00 18 1004.3
20260504231040 76 284 7.0 11.3 0.00 0.00 0.00 18 1004.3
20260504230617 75 280 8.7 12.2 0.00 0.00 0.00 17 1004.4
20260504230540 75 280 8.7 12.2 0.00 0.00 0.00 17 1004.4
20260504230040 75 270 8.7 13.9 0.00 0.00 0.00 20 1004.4
20260504225539 74 291 9.6 13.0 0.00 0.00 0.00 20 1004.5
20260504225038 75 309 10.4 14.8 0.00 0.00 0.00 21 1004.6
20260504224538 75 281 8.7 12.2 0.00 0.00 0.00 20 1004.6
20260504224037 75 280 9.6 16.5 0.00 0.00 0.00 23 1004.6
20260504223035 75 314 9.6 14.8 0.00 0.00 0.00 22 1004.7
20260504222535 74 280 10.4 14.8 0.00 0.00 0.00 22 1004.8
20260504222034 75 301 10.4 13.9 0.00 0.00 0.00 20 1004.8
20260504221033 74 284 7.8 10.4 0.00 0.00 0.00 20 1005.2
20260504220533 74 315 7.0 13.9 0.00 0.00 0.00 22 1005.2
20260504220032 74 281 10.4 10.4 0.00 0.00 0.00 24 1005.2
20260504215532 74 288 5.2 9.6 0.00 0.00 0.00 22 1005.3
20260504215031 74 315 7.0 13.0 0.00 0.00 0.00 26 1005.4
20260504214619 74 285 7.8 13.9 0.00 0.00 0.00 27 1005.4
20260504214531 74 285 7.8 13.9 0.00 0.00 0.00 27 1005.4
20260504214029 74 319 8.7 13.0 0.00 0.00 0.00 26 1005.5
20260504213529 73 255 9.6 11.3 0.00 0.00 0.00 24 1005.6
20260504213028 73 307 7.0 13.0 0.00 0.00 0.00 28 1005.6
20260504212027 72 274 8.7 13.0 0.00 0.00 0.00 27 1006.0
20260504211526 72 273 9.6 13.0 0.00 0.00 0.00 28 1006.0
20260504211025 73 277 9.6 10.4 0.00 0.00 0.00 27 1006.1
20260504210525 72 294 7.8 15.6 0.00 0.00 0.00 30 1006.1
20260504210024 73 283 9.6 16.5 0.00 0.00 0.00 30 1006.2
20260504205524 73 281 6.1 13.9 0.00 0.00 0.00 30 1006.2
20260504205023 71 274 11.3 11.3 0.00 0.00 0.00 31 1006.3
20260504204523 72 329 7.0 13.9 0.00 0.00 0.00 32 1006.3
20260504204019 72 278 9.6 14.8 0.00 0.00 0.00 29 1006.5
20260504203518 71 281 11.3 15.6 0.00 0.00 0.00 32 1006.5
20260504203018 72 312 11.3 17.4 0.00 0.00 0.00 33 1006.5
20260504202517 72 264 9.6 13.9 0.00 0.00 0.00 34 1006.5
20260504202017 72 271 9.6 15.6 0.00 0.00 0.00 32 1006.6
20260504201016 71 298 9.6 14.8 0.00 0.00 0.00 35 1006.7
20260504200553 72 295 9.6 14.8 0.00 0.00 0.00 33 1006.8
20260504200515 72 295 9.6 14.8 0.00 0.00 0.00 33 1006.8
20260504200015 72 264 11.3 16.5 0.00 0.00 0.00 32 1006.9
20260504195514 70 283 12.2 15.6 0.00 0.00 0.00 31 1006.9
20260504195014 71 287 9.6 19.1 0.00 0.00 0.00 34 1006.8
20260504194513 71 259 11.3 15.6 0.00 0.00 0.00 33 1006.9
20260504194013 71 260 8.7 18.2 0.00 0.00 0.00 32 1006.9
20260504193512 72 270 10.4 15.6 0.00 0.00 0.00 33 1007.0
20260504193012 70 287 10.4 16.5 0.00 0.00 0.00 32 1007.0
20260504192511 70 277 11.3 15.6 0.00 0.00 0.00 33 1007.0
20260504192011 71 283 9.6 16.5 0.00 0.00 0.00 32 1007.1
20260504191510 70 290 11.3 16.5 0.00 0.00 0.00 32 1007.1
20260504191010 70 281 11.3 15.6 0.00 0.00 0.00 33 1007.3